{"data":{"norad_id":65251,"epoch":"2026-09-20T13:38:49.498944Z","epoch_age_seconds":111653,"freshness":"FRESH","line1":"1 65251U 25179S   26263.56862846  .00010657  00000+0  33188-3 0  9991","line2":"2 65251  97.2831 302.8977 0000360  64.7730 295.3550 15.33454473 61491","mean_motion":15.33454473,"eccentricity":3.6e-5,"inclination_deg":97.2831,"raan_deg":302.8977,"arg_perigee_deg":64.773,"mean_anomaly_deg":295.355,"bstar":0.00033188,"rev_number":6149,"period_min":93.905624546051,"perigee_km":465.26861816842,"apogee_km":465.76136111168,"semimajor_km":6843.65198964,"source":"CELESTRAK","updated_at":"2026-09-21T09:00:35.561086Z"}}